TimeMST,TemperatureF,Dew PointF,Humidity,Sea Level PressureIn,VisibilityMPH,Wind Direction,Wind SpeedMPH,Gust SpeedMPH,PrecipitationIn,Events,Conditions,WindDirDegrees,DateUTC
1:53 AM,27.0,12.0,53,30.36,10.0,SW,31.1,46.0,N/A,,Clear,230,2013-01-16 08:53:00
2:53 AM,28.9,12.0,49,30.35,10.0,SW,36.8,59.8,N/A,,Clear,230,2013-01-16 09:53:00
3:53 AM,32.0,12.0,44,30.32,10.0,SW,35.7,50.6,N/A,,Clear,230,2013-01-16 10:53:00
4:53 AM,30.9,10.9,43,30.32,10.0,SW,39.1,46.0,N/A,,Clear,230,2013-01-16 11:53:00
5:53 AM,34.0,12.0,40,30.31,10.0,SW,32.2,42.6,N/A,,Clear,230,2013-01-16 12:53:00
6:53 AM,34.0,12.0,40,30.33,10.0,SW,31.1,39.1,N/A,,Clear,230,2013-01-16 13:53:00
7:53 AM,35.1,10.9,37,30.33,10.0,SW,27.6,47.2,N/A,,Clear,230,2013-01-16 14:53:00
8:53 AM,35.1,12.0,39,30.35,10.0,SW,25.3,38.0,N/A,,Clear,230,2013-01-16 15:53:00
9:53 AM,37.0,12.0,36,30.35,10.0,SW,27.6,39.1,N/A,,Clear,230,2013-01-16 16:53:00
10:53 AM,37.9,12.9,36,30.35,10.0,SW,28.8,38.0,N/A,,Clear,230,2013-01-16 17:53:00
11:53 AM,39.9,14.0,35,30.30,10.0,SW,29.9,36.8,N/A,,Clear,220,2013-01-16 18:53:00
1:53 PM,41.0,15.1,35,30.29,10.0,SW,27.6,36.8,N/A,,Clear,220,2013-01-16 20:53:00
2:53 PM,41.0,15.1,35,30.32,10.0,SW,28.8,36.8,N/A,,Clear,220,2013-01-16 21:53:00
3:53 PM,42.1,16.0,35,30.32,10.0,SW,25.3,-,N/A,,Clear,230,2013-01-16 22:53:00
4:53 PM,39.0,16.0,39,30.35,10.0,SW,27.6,36.8,N/A,,Clear,230,2013-01-16 23:53:00
5:53 PM,39.0,15.1,38,30.36,10.0,SW,24.2,-,N/A,,Clear,230,2013-01-17 00:53:00
6:53 PM,39.0,16.0,39,30.36,10.0,WSW,24.2,29.9,N/A,,Clear,250,2013-01-17 01:53:00
7:53 PM,37.0,16.0,42,30.38,10.0,WSW,29.9,34.5,N/A,,Clear,250,2013-01-17 02:53:00
8:53 PM,37.0,16.0,42,30.37,10.0,WSW,33.4,40.3,N/A,,Clear,240,2013-01-17 03:53:00
9:53 PM,37.9,16.0,41,30.36,10.0,WSW,29.9,38.0,N/A,,Clear,240,2013-01-17 04:53:00
10:53 PM,37.0,16.0,42,30.38,10.0,WSW,28.8,34.5,N/A,,Clear,240,2013-01-17 05:53:00
11:53 PM,37.0,15.1,41,30.38,10.0,WSW,24.2,34.5,N/A,,Clear,240,2013-01-17 06:53:00